カタログに戻る

FALCON 9 R/B

運用中HEO
NORAD 61911·ROCKET BODY·🇺🇸 United States

打ち上げ Nov 11, 2024 から Cape Canaveral Space Force Station

Loading…

次のパス (今後24時間)

TLE

最新Source: Space-Track

元期: Sep 13, 2026, 02:30 UTC

1 61911U 24206B   26256.10433752  .00026432  12732-6  14425-2 0  9994
2 61911  27.0321 243.6765 7096802 256.8631  21.6052  2.55064906 16034

AllMySatでFALCON 9 R/Bをリアルタイム追跡

Download on the App Store